sat.trackr.live / text

‹ back to catalog

STARLINK-1227

NORAD 45230 · 2020-012BE

PAYLOAD ACTIVE UNKNOWN

§ Identity

Operator
Country
US
Launch date
2020-02-17
Launch site
AFETR
Launch vehicle
Mass (kg)
RCS (m²)

Purposes: comms

External: N2YO · Heavens-Above · Gunter

§ Orbital elements

Epoch: 2026-09-20T03:14:05.270208Z

Period
92.56 min
Inclination
53.1461°
Eccentricity
0.0003572
Mean motion
15.55774565 rev/d
Perigee alt
397.5 km
Apogee alt
402.3 km
Semi-major
6,778.0 km
B*
7.2779e-4
RAAN
155.4601°
Arg perigee
145.1004°
Mean anomaly
215.0243°
Rev number
36,558

§ Raw data

STARLINK-12271 45230U 20012BE  26263.13478322  .00050958  00000+0  72779-3 0  99992 45230  53.1461 155.4601 0003572 145.1004 215.0243 15.55774565365584

JSON: /api/v1/satellites/45230 · /tle

For live sub-satellite position, see the globe view (requires WebGL).

§ Visibility from observer

Set your observer location to see the next 7 days of passes ≥ 10°. The values pass through the URL so the page stays shareable.

No JS? Fill the form by hand. The geolocation button needs JavaScript.